AE6DC-5 Weather Reports


time (UTC)temp
C
wind
direction
speed
KPH
gust
KPH
rain 1hr
cm
rain 24hr
cm
rain mn
cm
humidity
%
barometer
mb
20260506104951 13 301 9.7 12.9 0.00 0.00 0.00 8 1019.0
20260506104619 13 303 12.9 14.5 0.00 0.00 0.00 83 1019.2
20260506104019 13 302 9.7 14.5 0.00 0.00 0.00 84 1019.2
20260506103949 13 302 8.0 11.3 0.00 0.00 0.00 8 1019.1
20260506103440 13 303 9.7 11.3 0.00 0.00 0.00 84 1019.2
20260506102820 13 302 11.3 12.9 0.00 0.00 0.00 84 1019.2
20260506102219 13 304 9.7 11.3 0.00 0.00 0.00 84 1019.1
20260506101951 13 305 8.0 11.3 0.00 0.00 0.00 8 1019.0
20260506101620 13 306 9.7 11.3 0.00 0.00 0.00 84 1019.1
20260506101039 13 304 9.7 11.3 0.00 0.00 0.00 84 1019.1
20260506100951 13 305 9.7 11.3 0.00 0.00 0.00 8 1019.0
20260506100420 13 305 9.7 9.7 0.00 0.00 0.00 84 1019.1
20260506095950 13 306 9.7 11.3 0.00 0.00 0.00 8 1018.9
20260506095820 13 307 11.3 12.9 0.00 0.00 0.00 84 1019.1
20260506095220 13 300 9.7 12.9 0.00 0.00 0.00 84 1019.1
20260506094949 13 297 8.0 11.3 0.00 0.00 0.00 8 1019.0
20260506094620 13 296 11.3 14.5 0.00 0.00 0.00 85 1019.1
20260506094020 13 299 9.7 12.9 0.00 0.00 0.00 85 1019.2
20260506093949 13 297 9.7 12.9 0.00 0.00 0.00 8 1019.0
20260506093420 13 298 8.0 11.3 0.00 0.00 0.00 85 1019.1
20260506092950 13 303 9.7 11.3 0.00 0.00 0.00 8 1018.9
20260506092820 13 303 9.7 12.9 0.00 0.03 0.00 86 1019.1
20260506092241 13 300 9.7 11.3 0.00 0.03 0.00 86 1019.1
20260506091949 13 292 6.4 9.7 0.00 0.00 0.00 8 1018.9
20260506091621 13 288 8.0 14.5 0.00 0.03 0.00 86 1019.1
20260506091020 13 301 6.4 11.3 0.00 0.03 0.00 86 1019.1
20260506090421 13 301 9.7 11.3 0.00 0.03 0.00 86 1019.1
20260506085949 13 289 8.0 9.7 0.00 0.00 0.00 8 1018.9
20260506085859 13 290 8.0 11.3 0.00 0.03 0.00 87 1019.1
20260506085219 13 300 6.4 11.3 0.00 0.03 0.00 87 1019.1
20260506084949 13 302 8.0 9.7 0.00 0.03 0.00 8 1018.9
20260506084639 13 301 9.7 12.9 0.00 0.03 0.00 87 1019.0
20260506084019 13 300 9.7 11.3 0.00 0.05 0.00 87 1019.1
20260506083949 13 300 8.0 11.3 0.00 0.08 0.00 8 1019.0
20260506083439 13 301 9.7 12.9 0.00 0.13 0.00 87 1019.2
20260506082819 13 303 11.3 12.9 0.00 0.18 0.00 87 1019.2
20260506082308 13 303 9.7 11.3 0.00 0.18 0.00 87 1019.2
20260506081950 13 302 8.0 9.7 0.00 0.15 0.00 8 1019.1
20260506081619 13 303 8.0 9.7 0.00 0.18 0.00 87 1019.2
20260506081019 13 303 9.7 11.3 0.00 0.23 0.00 87 1019.2
20260506080439 13 308 8.0 11.3 0.00 0.30 0.00 87 1019.2
20260506073417 13 303 9.7 12.9 0.00 0.38 0.00 87 1018.9
20260506072817 13 307 8.0 12.9 0.00 0.41 0.00 87 1018.9
20260506072220 13 302 9.7 12.9 0.00 0.41 0.00 86 1018.9
20260506071950 13 303 8.0 9.7 0.00 0.38 0.00 8 1018.7
20260506071620 14 304 8.0 9.7 0.00 0.41 0.00 86 1018.9
20260506071020 14 296 8.0 12.9 0.00 0.41 0.00 86 1018.8
20260506070500 14 281 11.3 12.9 0.00 0.41 0.00 86 1018.7
20260506062218 13 293 11.3 12.9 0.00 0.43 0.41 87 1018.5
20260506061949 13 293 9.7 14.5 0.00 0.43 0.38 8 1018.3
20260506061638 13 293 12.9 14.5 0.00 0.43 0.41 87 1018.5
20260506061038 13 293 12.9 16.1 0.00 0.43 0.41 87 1018.4
20260506060949 13 294 11.3 12.9 0.00 0.43 0.38 8 1018.3
20260506060422 13 295 11.3 16.1 0.00 0.46 0.41 88 1018.4
20260506051037 13 280 11.3 14.5 0.00 0.53 0.41 90 1018.2
20260506050422 13 282 12.9 14.5 0.00 0.56 0.41 90 1018.2
20260506044640 13 267 11.3 12.9 0.00 0.56 0.41 90 1018.0
20260506044020 13 250 8.0 11.3 0.00 0.56 0.41 90 1018.1
20260506043950 13 263 8.0 11.3 0.00 0.53 0.38 9 1017.9
20260506043420 13 265 9.7 11.3 0.00 0.56 0.41 90 1018.0
20260506042949 13 258 8.0 9.7 0.00 0.53 0.38 9 1017.8
20260506042820 13 259 9.7 11.3 0.00 0.56 0.41 90 1017.9
20260506042220 13 262 9.7 11.3 0.00 0.56 0.41 90 1017.9
20260506041951 13 259 8.0 11.3 0.00 0.53 0.38 9 1017.6
20260506041621 13 259 9.7 11.3 0.00 0.56 0.41 90 1017.7
20260506041021 13 253 8.0 11.3 0.00 0.56 0.41 90 1017.7
20260506040949 13 262 8.0 11.3 0.00 0.53 0.38 9 1017.5
20260506040429 13 259 8.0 11.3 0.00 0.56 0.41 90 1017.6
20260506035949 13 260 9.7 14.5 0.00 0.53 0.38 9 1017.4
20260506035829 13 260 11.3 14.5 0.00 0.56 0.41 90 1017.5
20260506035218 13 266 11.3 12.9 0.00 0.56 0.41 90 1017.5
20260506034618 13 258 9.7 11.3 0.00 0.56 0.41 90 1017.4
20260506034018 13 267 9.7 11.3 0.00 0.56 0.41 90 1017.3
20260506033950 13 262 8.0 11.3 0.00 0.53 0.38 8 1017.2
20260506033418 13 260 8.0 11.3 0.00 0.56 0.41 90 1017.3
20260506032818 13 265 9.7 12.9 0.00 0.56 0.41 90 1017.2
20260506032218 13 259 9.7 12.9 0.00 0.56 0.41 90 1017.1
20260506031951 13 251 8.0 9.7 0.00 0.53 0.38 8 1017.0
20260506031638 13 262 9.7 11.3 0.00 0.56 0.41 90 1017.1
20260506031018 13 248 9.7 12.9 0.00 0.56 0.41 90 1017.0
20260506030949 13 255 8.0 11.3 0.00 0.53 0.38 8 1016.9
20260506030418 13 254 9.7 11.3 0.00 0.56 0.41 90 1017.0
20260506025950 13 253 8.0 11.3 0.00 0.53 0.38 8 1016.8
20260506025839 13 254 8.0 11.3 0.00 0.56 0.41 89 1016.9
20260506025219 13 251 9.7 11.3 0.00 0.56 0.41 89 1016.9
20260506024949 13 250 8.0 9.7 0.00 0.53 0.38 8 1016.8
20260506024642 13 248 11.3 12.9 0.00 0.56 0.41 89 1016.9
20260506024022 13 246 9.7 11.3 0.00 0.56 0.41 89 1016.8
20260506023949 13 249 9.7 11.3 0.00 0.53 0.38 8 1016.7
20260506023420 13 254 9.7 12.9 0.00 0.56 0.41 89 1016.8
20260506022819 13 244 11.3 14.5 0.00 0.56 0.41 89 1016.7
20260506022219 13 251 11.3 14.5 0.00 0.56 0.41 89 1016.7
20260506021949 13 247 9.7 12.9 0.00 0.53 0.38 8 1016.5
20260506021637 13 244 12.9 14.5 0.00 0.56 0.41 89 1016.6
20260506021016 13 246 12.9 14.5 0.00 0.56 0.41 89 1016.7
20260506020420 13 248 12.9 16.1 0.00 0.56 0.41 89 1016.7
20260506015949 13 257 14.5 19.3 0.00 0.53 0.38 8 1016.5
20260506015819 13 258 16.1 19.3 0.00 0.56 0.41 89 1016.7
20260506015220 13 254 14.5 16.1 0.00 0.56 0.41 89 1016.7
20260506014949 13 255 14.5 17.7 0.00 0.53 0.38 8 1016.5
20260506014620 13 258 16.1 17.7 0.00 0.56 0.41 89 1016.7
20260506014020 13 259 14.5 16.1 0.00 0.56 0.41 89 1016.7
20260506013951 13 261 14.5 16.1 0.00 0.53 0.38 8 1016.6
20260506013420 13 261 16.1 16.1 0.00 0.56 0.41 89 1016.7
20260506012820 13 260 14.5 16.1 0.00 0.56 0.41 89 1016.7
20260506012217 13 261 14.5 17.7 0.00 0.56 0.41 89 1016.6
20260506011950 13 257 14.5 16.1 0.00 0.53 0.38 8 1016.5
20260506011617 13 253 14.5 17.7 0.00 0.56 0.41 89 1016.6
20260506011017 13 260 16.1 17.7 0.00 0.56 0.41 89 1016.6
20260506010949 13 256 14.5 17.7 0.00 0.53 0.38 8 1016.6
20260506010417 13 260 16.1 19.3 0.00 0.56 0.41 89 1016.6
20260506005950 13 258 14.5 17.7 0.00 0.53 0.38 8 1016.3
20260506005818 13 258 14.5 17.7 0.00 0.56 0.41 89 1016.5
20260506005221 13 256 16.1 17.7 0.00 0.56 0.41 89 1016.5
20260506004949 13 252 14.5 17.7 0.00 0.53 0.38 8 1016.3
20260506004642 13 254 16.1 17.7 0.00 0.56 0.41 88 1016.4
20260506004021 13 252 14.5 19.3 0.00 0.56 0.41 88 1016.3
20260506003950 13 250 12.9 16.1 0.00 0.53 0.38 8 1016.1
20260506003442 13 258 16.1 17.7 0.00 0.56 0.41 88 1016.2
20260506002839 13 258 16.1 17.7 0.00 0.56 0.41 89 1016.2
20260506002242 13 252 14.5 17.7 0.00 0.56 0.41 89 1016.1
20260506001951 13 255 14.5 17.7 0.00 0.53 0.38 8 1015.9
20260506001618 13 265 14.5 17.7 0.00 0.56 0.41 89 1016.0
20260506001039 13 259 16.1 17.7 0.00 0.56 0.41 89 1016.2
20260506000418 13 258 16.1 17.7 0.00 0.56 0.41 88 1016.1
20260505235950 13 254 14.5 19.3 0.00 0.53 0.38 8 1016.0
20260505235859 13 255 16.1 19.3 0.00 0.56 0.41 88 1016.2
20260505235219 13 259 16.1 17.7 0.00 0.56 0.41 88 1016.0
20260505234949 13 262 16.1 17.7 0.00 0.53 0.38 8 1015.7
20260505234619 13 263 16.1 19.3 0.00 0.56 0.41 87 1015.8
20260505234039 13 257 16.1 19.3 0.00 0.56 0.41 87 1016.5
20260505233950 13 255 14.5 17.7 0.00 0.53 0.38 8 1016.3
20260505233420 13 260 12.9 16.1 0.00 0.56 0.41 87 1016.5
20260505232819 13 263 12.9 14.5 0.00 0.56 0.41 88 1016.5
20260505232240 13 268 14.5 17.7 0.00 0.56 0.41 88 1016.6
20260505231950 13 262 12.9 16.1 0.00 0.53 0.38 8 1016.4
20260505231640 13 261 12.9 16.1 0.00 0.56 0.41 88 1016.5
20260505231020 13 256 14.5 16.1 0.00 0.56 0.41 88 1016.5
20260505230420 13 255 14.5 16.1 0.00 0.56 0.41 88 1016.4
20260505225950 13 253 12.9 16.1 0.00 0.53 0.38 8 1016.2
20260505225840 13 253 12.9 17.7 0.00 0.56 0.41 88 1016.3
20260505225217 13 255 16.1 17.7 0.00 0.56 0.41 88 1016.3
20260505224623 13 259 16.1 17.7 0.00 0.56 0.41 88 1016.3
20260505224020 13 257 14.5 16.1 0.00 0.56 0.41 88 1016.3
20260505223950 13 257 16.1 17.7 0.00 0.53 0.38 8 1016.2
20260505223440 13 263 16.1 19.3 0.00 0.56 0.41 87 1016.2
20260505222841 13 259 14.5 17.7 0.00 0.56 0.41 87 1016.3
20260505222220 13 259 14.5 16.1 0.00 0.56 0.41 87 1016.1
20260505221950 13 265 14.5 16.1 0.00 0.53 0.38 8 1016.0
20260505221620 13 266 14.5 19.3 0.00 0.56 0.41 87 1016.1
20260505221020 13 265 14.5 17.7 0.00 0.56 0.41 87 1016.2
20260505220421 13 259 16.1 17.7 0.00 0.56 0.41 86 1016.1
20260505215950 13 256 14.5 16.1 0.00 0.53 0.38 8 1016.2
20260505215821 13 256 14.5 17.7 0.00 0.56 0.41 86 1016.3
20260505215221 13 258 14.5 16.1 0.00 0.56 0.41 86 1016.4
20260505214618 13 262 16.1 17.7 0.00 0.56 0.41 86 1016.3
20260505214018 13 265 14.5 17.7 0.00 0.56 0.41 86 1016.1
20260505213950 13 260 14.5 16.1 0.00 0.53 0.38 8 1016.0
20260505213418 13 264 16.1 17.7 0.00 0.56 0.41 87 1016.2
20260505212819 13 266 16.1 19.3 0.00 0.56 0.41 87 1016.4
20260505212219 13 270 16.1 17.7 0.00 0.56 0.41 88 1016.5
20260505211950 12 271 14.5 16.1 0.00 0.53 0.38 8 1016.2
20260505211639 13 273 16.1 17.7 0.00 0.56 0.41 88 1016.4
20260505211019 13 276 14.5 17.7 0.00 0.56 0.41 88 1016.5
20260505210422 13 270 14.5 17.7 0.00 0.56 0.41 87 1016.3
20260505205950 13 271 14.5 17.7 0.00 0.53 0.38 8 1016.2
20260505205839 13 272 14.5 17.7 0.00 0.56 0.41 87 1016.3
20260505205219 13 281 14.5 17.7 0.00 0.56 0.41 86 1016.2
20260505204622 13 268 16.1 19.3 0.00 0.56 0.41 85 1016.1
20260505204022 13 267 14.5 17.7 0.00 0.56 0.41 85 1016.2
20260505203950 13 268 14.5 16.1 0.00 0.53 0.38 8 1015.9
20260505203440 13 268 14.5 17.7 0.00 0.56 0.41 85 1016.2
20260505202819 13 272 16.1 17.7 0.00 0.56 0.41 86 1016.1
20260505202217 13 272 14.5 17.7 0.00 0.56 0.41 86 1016.2
20260505201950 13 265 14.5 17.7 0.00 0.53 0.38 8 1016.1
20260505201620 13 270 16.1 19.3 0.00 0.56 0.41 86 1016.3
20260505201040 13 270 16.1 17.7 0.00 0.56 0.41 86 1016.3
20260505200420 13 266 16.1 19.3 0.00 0.56 0.41 86 1016.4
20260505195950 12 273 16.1 19.3 0.00 0.53 0.38 8 1016.1
20260505195820 13 273 17.7 19.3 0.00 0.56 0.41 86 1016.3
20260505195220 13 269 16.1 19.3 0.00 0.56 0.41 87 1016.3
20260505194637 13 278 14.5 17.7 0.00 0.56 0.41 87 1016.3
20260505194037 13 276 16.1 19.3 0.00 0.56 0.41 87 1016.3
20260505193950 12 277 14.5 17.7 0.00 0.53 0.38 8 1016.1
20260505193458 13 274 16.1 19.3 0.00 0.56 0.41 87 1016.2
20260505192817 13 276 14.5 16.1 0.00 0.56 0.41 88 1016.4
20260505192224 13 281 14.5 17.7 0.00 0.56 0.41 88 1016.4
20260505191950 12 276 12.9 16.1 0.00 0.53 0.38 8 1016.2
20260505191621 13 279 14.5 17.7 0.00 0.56 0.41 88 1016.3
20260505191018 13 276 14.5 16.1 0.00 0.56 0.41 88 1016.4
20260505190418 13 275 12.9 16.1 0.00 0.56 0.41 88 1016.4
20260505185949 12 280 11.3 12.9 0.00 0.53 0.38 8 1016.3
20260505185818 13 280 12.9 14.5 0.00 0.56 0.41 89 1016.4
20260505185219 13 284 12.9 16.1 0.00 0.56 0.41 89 1016.4
20260505184949 12 284 12.9 14.5 0.00 0.53 0.38 8 1016.4
20260505184618 13 282 12.9 14.5 0.00 0.56 0.41 89 1016.6
20260505184038 13 290 14.5 17.7 0.00 0.56 0.41 89 1016.6
20260505183949 12 294 9.7 16.1 0.00 0.53 0.38 8 1016.5
20260505183419 13 300 12.9 16.1 0.00 0.56 0.41 89 1016.6
20260505182949 12 299 12.9 16.1 0.00 0.53 0.38 8 1016.6
20260505182819 13 299 14.5 17.7 0.00 0.56 0.41 89 1016.7
20260505182219 13 299 12.9 17.7 0.00 0.56 0.41 90 1015.9
20260505181949 12 298 9.7 14.5 0.00 0.53 0.38 8 1016.0
20260505181619 13 299 11.3 16.1 0.00 0.56 0.41 90 1016.2
20260505181019 12 296 12.9 17.7 0.00 0.56 0.41 90 1016.3
20260505180949 12 297 12.9 14.5 0.00 0.53 0.38 9 1016.0
20260505180419 12 289 16.1 17.7 0.00 0.56 0.41 90 1016.1
20260505175949 12 299 11.3 14.5 0.00 0.53 0.38 9 1015.8
20260505175819 13 300 12.9 16.1 0.00 0.56 0.41 91 1015.9
20260505175300 13 292 16.1 19.3 0.00 0.56 0.41 91 1015.9
20260505174623 13 301 11.3 16.1 0.00 0.56 0.41 91 1015.9
20260505174022 12 303 12.9 16.1 0.00 0.56 0.41 91 1016.0
20260505173950 12 301 11.3 14.5 0.00 0.53 0.38 9 1015.8
20260505173426 13 300 9.7 16.1 0.00 0.56 0.41 91 1015.9
20260505172826 13 298 9.7 14.5 0.00 0.56 0.41 91 1016.0
20260505172226 13 302 9.7 12.9 0.00 0.56 0.41 91 1016.0
20260505171949 12 302 8.0 11.3 0.00 0.53 0.38 9 1015.8
20260505171632 12 302 8.0 12.9 0.00 0.56 0.41 91 1015.9
20260505171032 12 302 9.7 14.5 0.00 0.56 0.41 91 1015.9
20260505170949 12 305 11.3 16.1 0.00 0.53 0.38 9 1015.7
20260505170417 12 307 12.9 17.7 0.00 0.56 0.41 91 1015.8
20260505165950 12 304 8.0 9.7 0.00 0.53 0.38 9 1015.7
20260505165820 12 305 8.0 11.3 0.00 0.56 0.41 91 1015.9
20260505165240 13 300 9.7 12.9 0.00 0.56 0.41 91 1015.9
20260505164949 12 302 9.7 11.3 0.00 0.53 0.38 9 1015.8
20260505164620 13 301 9.7 12.9 0.00 0.56 0.41 91 1015.9
20260505164020 12 296 11.3 14.5 0.00 0.56 0.41 91 1015.8
20260505163949 12 300 9.7 12.9 0.00 0.53 0.38 9 1015.7
20260505163421 12 300 9.7 12.9 0.00 0.56 0.41 91 1015.9
20260505162821 12 265 14.5 16.1 0.00 0.56 0.41 91 1015.8
20260505162221 12 271 14.5 16.1 0.00 0.56 0.41 91 1015.8
20260505161950 12 260 12.9 14.5 0.00 0.53 0.38 9 1015.7
20260505161621 12 254 12.9 16.1 0.00 0.56 0.41 91 1015.8
20260505161021 12 262 12.9 16.1 0.00 0.56 0.41 91 1015.7
20260505160949 12 254 12.9 14.5 0.00 0.53 0.38 9 1015.5
20260505160421 12 252 12.9 14.5 0.00 0.56 0.41 91 1015.7
20260505152949 12 219 11.3 12.9 0.00 0.53 0.38 8 1015.7
20260505152624 12 226 14.5 17.7 0.00 0.56 0.41 88 1015.7
20260505152022 12 237 11.3 14.5 0.00 0.56 0.41 88 1015.6
20260505151950 12 237 11.3 14.5 0.00 0.53 0.38 8 1015.4
20260505151419 12 236 14.5 17.7 0.00 0.56 0.41 88 1015.4
20260505150949 12 231 12.9 19.3 0.00 0.53 0.38 8 1015.2
20260505150818 12 232 14.5 19.3 0.00 0.56 0.41 88 1015.4
20260505150239 12 239 12.9 19.3 0.00 0.56 0.41 88 1015.3
20260505140223 12 221 11.3 11.3 0.00 0.56 0.41 87 1015.2
20260505130218 12 229 9.7 12.9 0.00 0.56 0.41 85 1015.0
20260505125038 12 220 11.3 12.9 0.00 0.56 0.41 84 1015.1
20260505124949 12 229 11.3 12.9 0.00 0.53 0.38 8 1014.9
20260505124418 12 244 12.9 14.5 0.00 0.56 0.41 84 1015.0
20260505123949 12 249 11.3 12.9 0.00 0.53 0.38 8 1014.9
20260505123818 12 250 11.3 14.5 0.00 0.56 0.41 84 1015.0
20260505123218 12 245 11.3 12.9 0.00 0.56 0.41 83 1015.0
20260505122638 12 244 9.7 12.9 0.00 0.56 0.41 83 1015.0
20260505122019 12 255 11.3 16.1 0.00 0.56 0.41 83 1014.9
20260505121950 12 254 9.7 14.5 0.00 0.53 0.38 8 1014.8
20260505121419 12 242 11.3 14.5 0.00 0.56 0.41 83 1014.8
20260505120949 12 240 9.7 11.3 0.00 0.53 0.38 8 1014.8
20260505120819 12 240 9.7 12.9 0.00 0.56 0.41 83 1014.9
20260505120221 12 231 11.3 12.9 0.00 0.56 0.41 82 1014.9
20260505115949 12 229 9.7 11.3 0.00 0.53 0.38 8 1014.8
20260505115619 12 232 9.7 12.9 0.00 0.56 0.41 82 1014.9
20260505115019 12 235 11.3 12.9 0.00 0.56 0.41 82 1014.9
20260505114949 12 237 8.0 9.7 0.00 0.53 0.38 8 1014.8
20260505114425 12 234 9.7 9.7 0.00 0.56 0.41 82 1015.0
20260505113949 12 253 6.4 8.0 0.00 0.53 0.38 8 1015.0
20260505113821 12 253 8.0 9.7 0.00 0.56 0.41 82 1015.1
20260505113228 12 250 6.4 8.0 0.00 0.56 0.41 82 1015.2
20260505112949 12 258 4.8 6.4 0.00 0.53 0.38 8 1015.1
20260505112625 12 257 6.4 8.0 0.00 0.56 0.41 82 1015.2
20260505112025 12 271 9.7 11.3 0.00 0.56 0.41 82 1014.9
20260505111949 12 269 9.7 11.3 0.00 0.53 0.38 8 1014.7
20260505111432 12 271 11.3 12.9 0.00 0.56 0.41 83 1014.9
20260505110852 12 291 9.7 12.9 0.00 0.56 0.41 83 1014.9
20260505110220 12 285 14.5 16.1 0.00 0.56 0.41 84 1015.0